Regional Weather Roundup
Issued by NWS

Home | Current Version | Previous Version | Text Only | Print | Product List | Glossary Off
Versions: 1 2 3 4 5 6 7 8 9 10 11 12 13 14 15 16 17 18 19 20 21 22 23 24 25 26 27 28

000
ASUS45 KCYS 010910
RWRWY

WYOMING REGIONAL WEATHER ROUNDUP
NATIONAL WEATHER SERVICE CHEYENNE WY
300 AM MDT SUN MAY 01 2016

NOTE:  "FAIR" INDICATES FEW OR NO CLOUDS BELOW 12,000 FEET
WITH NO SIGNIFICANT WEATHER AND/OR OBSTRUCTIONS TO VISIBILITY.

WYZ001-011000-
YELLOWSTONE NATIONAL PARK

CITY           SKY/WX    TMP DP  RH WIND       PRES   REMARKS
LK YELLOWSTONE   N/A     29  21  72 CALM      30.29R
W YELLOWSTONE  NOT AVBL

$$
WYZ002>013-054>058-071-098>099-011000-
NORTHERN WYOMING

CITY           SKY/WX    TMP DP  RH WIND       PRES   REMARKS
JACKSON        FAIR      37  27  65 N15       30.22S WCI  28
CODY           CLOUDY    37  34  87 CALM      30.30S
GREYBULL       FAIR      36  32  85 W5        30.28R WCI  32
WORLAND        FAIR      39  35  86 S5        30.28S
SHERIDAN       CLOUDY    39  35  86 CALM      30.31S
BUFFALO          N/A    N/A N/A N/A MISG      30.31R
GILLETTE       FAIR      29  27  92 S6        30.29R WCI  23
HULETT         CLOUDY    37  30  75 CALM      30.30S
NEWCASTLE      FAIR      32  27  80 N8        30.28S WCI  25

$$
WYZ014>020-022>026-101>103-011000-
CENTRAL WYOMING

CITY           SKY/WX    TMP DP  RH WIND       PRES   REMARKS
BIG PINEY      FAIR      25  22  88 NW6       30.22F WCI  18
PINEDALE       FAIR      27  27 100 NW3       30.22S
DUBOIS         NOT AVBL
LANDER         CLOUDY    36  29  75 W6        30.27F WCI  31
RIVERTON       CLOUDY    35  32  88 NW10      30.29S WCI  27
CASPER         CLOUDY    32  29  88 N8        30.28R WCI  25
DOUGLAS        MOCLDY    32  29  88 W6        30.28S WCI  26

$$
WYZ021-027>030-104>119-011000-
SOUTHERN WYOMING

CITY           SKY/WX    TMP DP  RH WIND       PRES   REMARKS
EVANSTON       CLOUDY    33  23  66 E20G35    30.15R WCI  21
FORT BRIDGER   MOSUNNY   32  32 100 E17       30.20S WCI  21
ROCK SPRINGS   CLOUDY    33  27  78 NE15      30.20S WCI  23
DIXON          FAIR      34  21  59 E9        30.17S WCI  27
RAWLINS        MOCLDY    29  26  89 NE9       30.23F WCI  20
SARATOGA       CLOUDY    32  25  74 NE9       30.22S WCI  24
LARAMIE        FLURRIES  27  23  85 NE10      30.22R WCI  17
CHEYENNE       CLOUDY    31  28  89 N15G23    30.21S WCI  20
TORRINGTON     CLOUDY    37  32  82 NW10      30.23R WCI  30
PINE BLUFFS    FLURRIES  32  32 100 N17       30.21R WCI  21

$$




USA.gov is the U.S. government's official web portal to all federal, state and local government web resources and services.